Regional Weather Roundup
Issued by NWS

Home | Current Version | Previous Version | Graphics & Text | Print | Product List | Glossary On
Versions: 1 2 3 4 5 6 7 8 9 10 11 12 13 14 15 16 17 18 19 20 21 22 23 24 25 26 27 28 29 30 31 32 33 34 35 36 37 38 39 40 41 42 43 44 45 46 47 48 49 50
000
ASUS43 KDMX 190601
RWRIA

WEATHER ROUNDUP FOR IOWA
NATIONAL WEATHER SERVICE DES MOINES IA
1200 AM CST FRI JAN 19 2018

NOTE: "FAIR" INDICATES FEW OR NO CLOUDS BELOW 12,000 FEET WITH NO
SIGNIFICANT WEATHER AND/OR OBSTRUCTIONS TO VISIBILITY.

* - THESE STATIONS ARE NOT NWS STATIONS...THUS NOT UNDER NWS
QUALITY CONTROL.  THEY ALSO DO NOT REPORT WEATHER SUCH
AS PRECIPITATION OR FOG.

IAZ001>003-012>014-020>022-031>034-043>046-190700-
   NORTHWEST IOWA

CITY           SKY/WX    TMP DP  RH WIND       PRES   REMARKS
CARROLL *      CLOUDY    30  23  74 SW14G21   29.85S WCI  20
CHEROKEE *     CLOUDY    27  25  91 S6        29.81F WCI  20
DENISON *      CLOUDY    28  21  74 S8        29.87S WCI  20
LE MARS *      CLOUDY    28  25  86 S8        29.80F WCI  20
ORANGE CITY *  CLOUDY    27  25  93 S3        29.79S
SHELDON *      CLOUDY    27  27 100 S8        29.77F WCI  18
SIOUX CITY     CLOUDY    27  24  89 SE9       29.81F WCI  18
6HR MIN TEMP:  25; 6HR MAX TEMP:  36;

SPENCER        CLOUDY    29  24  82 SW8       29.79F WCI  21
6HR MIN TEMP:  29; 6HR MAX TEMP:  34;

STORM LAKE *   CLOUDY    28  25  86 SW16      29.80F WCI  17
$$

IAZ055>058-069>071-079>083-090>094-190700-
   SOUTHWEST IOWA

CITY           SKY/WX    TMP DP  RH WIND       PRES   REMARKS
ATLANTIC *     CLOUDY    23  23 100 SW7       29.88F WCI  15
AUDUBON *      CLOUDY    28  23  80 CALM      29.88S
CLARINDA *     CLOUDY    28  25  86 S7        29.93F WCI  21
COUNCIL BLFS * CLOUDY    34  25  69 SW12      29.87S WCI  25
CRESTON *      CLOUDY    32  23  69 SW15      29.91F WCI  22
HARLAN  *      CLOUDY    27  23  86 S7        29.91S WCI  19
LAMONI         CLOUDY    30  21  69 S14       29.93F WCI  19
6HR MIN TEMP:  30; 6HR MAX TEMP:  33;

RED OAK *      CLOUDY    28  25  86 S9        29.90F WCI  20
SHENANDOAH *   CLOUDY    32  23  69 S7        29.92F WCI  26
$$

IAZ047>049-059>061-072>074-084-190700-
   CENTRAL IOWA

CITY           SKY/WX    TMP DP  RH WIND       PRES   REMARKS
AMES           CLOUDY    26  21  81 S5        29.89F WCI  20
6HR MIN TEMP:  23; 6HR MAX TEMP:  31;

ANKENY *       CLOUDY    30  23  74 S6        29.91F WCI  24
BOONE *        CLOUDY    30  23  74 SW8G14    29.86F WCI  23
CHARITON *     CLOUDY    28  21  74 S13       29.92F WCI  18
DES MOINES     CLOUDY    30  21  69 S5        29.90F WCI  25
6HR MIN TEMP:  29; 6HR MAX TEMP:  34;

GRINNELL*      CLOUDY    29  22  74 SW12      29.91F WCI  20
KNOXVILLE *    CLOUDY    32  21  64 SW14      29.90F WCI  22
MARSHALLTOWN   CLOUDY    28  21  75 SW12      29.88F WCI  18
6HR MIN TEMP:  26; 6HR MAX TEMP:  33;

NEWTON *       CLOUDY    30  23  74 SW13      29.90F WCI  20
PELLA *        CLOUDY    32  22  66 SW12G17   29.93F WCI  23
$$

IAZ004>006-015-016-023>025-035-036-190700-
   NORTH CENTRAL IOWA

CITY           SKY/WX    TMP DP  RH WIND       PRES   REMARKS
ALGONA *       CLOUDY    25 N/A N/A S12       29.80F WCI  14
CLARION *      CLOUDY    25  25 100 S10       29.84F WCI  15
ESTHERVILLE    CLOUDY    31  26  82 SW12      29.77F WCI  22
6HR MIN TEMP:  30; 6HR MAX TEMP:  33;

FORT DODGE *   CLOUDY    27  21  78 S10       29.84F WCI  17
MASON CITY     CLOUDY    27  20  75 SW18G26   29.82F WCI  14
6HR MIN TEMP:  27; 6HR MAX TEMP:  32;

FOREST CITY *    N/A     27  23  86 SW6       29.82S WCI  20
WEBSTER CITY * CLOUDY    27  21  80 SW12      29.83F WCI  16
IOWA FALLS *     N/A     26  22  82 SW5       29.88R WCI  21
$$

IAZ007>011-017>019-026>030-037>042-050>054-066-190700-
   NORTHEAST IOWA

CITY           SKY/WX    TMP DP  RH WIND       PRES   REMARKS
CEDAR RAPIDS     N/A     25  19  78 S8        29.91F WCI  16
6HR MIN TEMP:  25; 6HR MAX TEMP:  32;

CHARLES CITY *   N/A     21  21 100 S9        29.85S WCI  11
CLINTON *        N/A     24  19  81 SW9       29.95F WCI  14
DECORAH *        N/A     27  21  80 SW8       29.83S WCI  18
DUBUQUE          N/A     25  18  74 SW12      29.89F WCI  14
6HR MIN TEMP:  25; 6HR MAX TEMP:  28;

MONTICELLO *     N/A     27  21  80 S8        29.91F WCI  18
OELWEIN *        N/A     25  23  93 S9        29.87F WCI  15
WATERLOO         N/A     25  19  78 S6        29.88F WCI  18
6HR MIN TEMP:  25; 6HR MAX TEMP:  30;

$$

IAZ064-065-067-068-078-190700-
   EAST CENTRAL IOWA

CITY           SKY/WX    TMP DP  RH WIND       PRES   REMARKS
DAVENPORT        N/A     31  20  63 SW12      29.96F WCI  22
6HR MIN TEMP:  31; 6HR MAX TEMP:  33;

IOWA CITY        N/A     29  19  66 S5        29.96F WCI  24
6HR MIN TEMP:  28; 6HR MAX TEMP:  33;

MT. PLEASANT * CLOUDY    30  21  69 SW10      29.98F WCI  21
MUSCATINE *      N/A     30  21  69 S7        29.98F WCI  23
QUAD CITIES      N/A     31  20  63 SW8       29.96F WCI  23
6HR MIN TEMP:  30; 6HR MAX TEMP:  33;

$$

IAZ062-063-075>077-085>089-095>099-190700-
   SOUTHEAST IOWA

CITY           SKY/WX    TMP DP  RH WIND       PRES   REMARKS
BURLINGTON     CLOUDY    30  19  63 SW12      29.99F WCI  20
6HR MIN TEMP:  28; 6HR MAX TEMP:  32;

FAIRFIELD *    CLOUDY    30  19  64 SW10      29.95F WCI  21
FORT MADISON * CLOUDY    32  21  64 SW12      30.00F WCI  23
KEOKUK *       CLOUDY    32  21  64 SW13G20   30.00F WCI  22
OSKALOOSA *      N/A     30  22  72 SW15      29.93F WCI  19
OTTUMWA        CLOUDY    34  21  59 SW18      29.93F WCI  23
6HR MIN TEMP:  32; 6HR MAX TEMP:  34;

WASHINGTON *   CLOUDY    30  23  74 SW13      29.96F WCI  20
$$

ABBREVIATIONS USED IN REMARKS
   TC - TEMPERATURES IN CELSIUS
  WCI - WIND CHILL INDEX
   HX - HEAT INDEX
  VSB - VISIBILITY
$$




USA.gov is the U.S. government's official web portal to all federal, state and local government web resources and services.